RH
45 63 69 67 63 55 51 49 61 65 62 59 53 48 45 51 57 61 59 57 56 56 56 66 59 53 54 51 48 67 74 69 59 53 50 47 39 42 34 13 11 13 19
42 49 62 68 65 71 55 48 54 57 59 56 51 46 49 49 54 55 56 56 59 60 61 62 62 64 63 59 56 56 59 63 61 57 56 55 52 44 38 34 27 13 9
22 41 64 68 62 52 49 66 43 43 46 52 52 53 50 45 51 51 48 48 53 59 58 62 64 64 63 65 65 64 64 60 62 60 58 61 61 60 52 43 38 34 28
19 22 28 27 30 24 23 24 30 32 34 45 37 26 38 39 44 41 51 45 48 56 53 55 55 56 56 55 57 59 62 67 67 65 61 60 62 66 67 64 56 45 40
17 19 20 21 21 20 19 18 18 18 18 18 19 18 18 17 17 25 43 51 36 41 42 46 50 49 54 54 52 50 55 63 67 70 70 70 70 65 65 67 70 66 57
16 17 17 18 18 18 17 16 16 16 16 16 17 17 16 16 16 16 17 16 18 18 18 22 24 52 59 62 64 59 57 67 60 59 62 64 73 76 78 74 72 72 72
16 15 16 16 16 17 17 17 16 16 16 16 15 14 12 10 6 4 4 4 4 4 5 6 6 8 12 20 42 57 66 65 68 61 57 58 52 55 68 72 71 68 67
16 17 17 17 18 19 18 16 16 16 13 7 4 4 3 3 4 4 5 6 6 6 7 7 7 7 7 7 7 9 12 20 39 55 62 61 60 57 53 49 55 55 58
16 18 18 19 19 18 16 16 15 9 5 4 3 3 4 5 6 7 8 9 9 10 10 11 11 11 11 10 10 10 10 9 9 11 24 47 57 56 57 52 56 57 57
17 19 18 17 16 16 17 14 9 4 4 4 4 5 6 8 9 10 12 13 13 13 13 12 11 10 9 9 9 9 9 9 9 10 10 10 13 17 27 29 49 44 53
18 17 16 16 17 17 13 7 4 4 4 5 6 8 9 10 11 12 14 14 14 14 12 10 10 10 11 12 13 13 13 13 13 13 12 12 10 10 13 19 18 32 56
18 17 17 17 17 14 7 4 3 4 6 7 8 9 10 11 12 12 13 12 10 10 10 11 12 13 15 16 16 15 15 14 14 14 14 14 14 14 13 13 25 58 73
17 17 18 18 16 8 4 3 4 5 7 8 9 10 11 11 13 13 11 9 10 13 14 13 15 17 19 19 18 16 16 16 13 11 11 11 11 12 12 14 18 43 63
17 19 19 17 10 4 3 4 5 6 7 9 10 11 12 12 12 11 10 11 14 14 16 18 20 20 18 18 18 17 15 11 13 12 11 10 10 11 12 13 13 14 16
18 19 18 12 5 3 4 5 6 7 9 11 12 11 11 12 13 14 14 14 15 17 19 18 14 13 17 18 18 15 15 15 13 12 12 13 14 15 16 16 17 19 18
19 19 12 6 3 3 4 5 7 9 11 12 12 12 11 13 16 19 18 17 17 19 18 16 10 19 21 17 16 19 19 18 16 16 17 17 16 17 17 17 16 14 15
19 13 7 4 3 3 5 6 8 11 13 13 14 13 13 14 16 19 18 17 17 19 19 11 17 20 17 18 17 8 9 12 14 14 13 14 14 14 14 14 14 14 15
17 10 5 4 3 4 5 7 10 14 14 12 12 14 15 15 16 16 16 15 17 19 13 8 11 14 17 18 12 7 10 13 15 15 13 12 11 11 12 12 13 14 16
15 9 5 4 3 4 5 8 13 15 14 10 8 8 9 14 15 15 16 18 19 9 6 7 7 8 11 9 7 8 14 17 16 14 13 13 13 14 14 14 14 15 16
14 9 6 4 4 4 5 10 15 16 11 10 10 6 4 9 14 17 18 17 7 5 6 6 6 6 7 7 9 12 16 18 18 16 14 13 14 14 14 14 15 16 17
19 13 7 4 4 4 7 13 16 17 14 14 10 4 4 5 8 10 7 5 5 6 6 6 7 7 8 10 12 14 17 19 20 19 15 13 12 13 13 14 14 16 18
21 17 10 5 4 4 10 15 18 18 16 14 5 3 3 4 4 4 4 4 5 6 6 6 7 8 8 9 11 14 17 19 21 21 19 15 13 12 12 12 13 14 16
16 12 7 5 4 8 14 18 19 17 14 5 3 3 3 4 4 5 5 5 6 6 7 7 8 8 10 11 13 15 18 20 23 24 22 18 16 14 13 12 12 12 13
10 7 6 5 6 13 18 20 18 16 7 3 3 4 4 4 4 5 5 6 6 6 7 7 7 8 9 10 12 15 18 21 25 27 25 22 20 19 18 17 16 15 14
8 6 5 6 14 19 21 19 17 7 4 4 4 4 5 5 5 5 6 6 6 6 7 7 7 8 8 9 10 12 15 19 24 27 27 26 25 24 23 21 19 17 16
7 6 8 16 20 22 19 18 15 7 4 4 5 5 6 6 6 6 6 7 7 8 8 8 9 9 10 10 11 11 12 14 17 21 23 24 25 24 23 21 20 19 18
Wind_Speed
12 9 7 4 4 3 4 4 4 4 5 5 7 7 7 6 6 6 7 7 7 7 6 6 6 6 6 7 7 6 6 7 7 6 6 7 7 7 6 7 7 7 7
13 9 8 5 2 3 5 5 5 6 6 7 8 8 8 8 8 8 8 8 8 8 7 7 8 8 8 8 8 7 7 7 7 7 7 6 5 6 7 7 7 7 6
12 11 8 8 5 3 1 1 4 6 7 7 7 8 8 9 9 10 10 10 10 9 9 10 10 11 10 10 10 10 10 9 9 9 8 7 7 7 7 7 6 7 8
9 8 7 5 4 3 3 4 5 6 6 7 8 9 10 11 12 11 12 12 12 12 13 12 13 13 13 13 13 12 12 12 10 10 9 9 9 9 8 8 9 8 9
5 5 5 5 4 4 5 6 7 8 9 10 11 11 12 13 13 12 12 12 13 14 14 14 15 15 15 15 14 14 13 13 14 13 11 11 11 12 11 11 10 10 10
5 5 5 5 5 5 6 7 8 10 10 11 11 12 12 13 13 12 13 13 13 14 15 16 16 14 15 15 16 15 15 16 17 17 16 14 14 14 13 13 13 12 12
4 5 5 5 5 5 7 9 9 10 11 12 12 11 11 11 11 12 13 15 15 15 17 18 18 19 19 19 19 17 18 19 19 20 20 19 19 18 17 16 16 16 15
4 4 5 5 5 7 8 9 9 10 11 10 9 10 11 12 13 14 15 16 17 18 19 19 19 20 20 21 22 22 23 23 23 23 24 24 23 21 19 20 19 18 18
4 5 5 5 7 8 8 9 10 10 9 10 11 12 13 14 15 16 17 18 19 21 21 21 21 20 22 22 23 23 23 24 25 25 26 26 26 25 23 21 22 22 21
5 5 6 7 7 8 9 9 9 10 11 11 12 14 15 15 16 17 18 19 20 21 22 22 22 22 22 22 23 23 24 24 25 25 27 27 27 28 27 26 24 24 23
6 6 6 8 9 10 10 9 9 10 12 13 14 14 15 17 19 20 20 21 22 22 22 22 21 20 21 21 21 21 22 22 23 24 24 25 26 26 26 26 25 24 23
6 6 7 8 9 10 9 9 11 12 13 14 15 17 19 21 22 23 22 22 20 19 19 18 18 18 18 19 19 18 17 18 19 19 19 21 22 24 25 24 23 23 22
7 7 7 9 9 9 9 10 11 13 15 16 18 21 22 24 24 24 22 20 18 17 16 16 18 19 19 18 17 17 18 18 18 17 17 18 19 20 20 20 22 24 26
7 7 8 9 8 8 10 11 12 14 17 20 22 24 25 25 23 22 20 18 16 15 16 18 20 20 18 16 16 17 16 15 16 16 15 15 15 15 15 17 20 22 26
8 8 8 9 8 9 10 12 14 17 19 22 23 23 23 22 21 19 18 16 15 15 17 16 17 18 17 16 15 15 14 15 14 14 14 15 16 17 18 19 20 21 23
8 8 8 8 8 9 12 13 15 18 21 22 21 20 19 18 18 16 14 13 14 15 15 18 18 16 15 14 13 14 14 13 13 13 13 14 15 16 18 19 20 21 22
9 9 9 9 9 11 13 15 17 19 20 20 19 18 18 17 15 13 12 12 14 16 18 18 14 13 13 13 14 13 12 11 11 13 14 16 18 18 19 20 21 21 21
10 10 10 11 11 13 15 16 18 19 18 17 17 17 16 15 13 11 12 14 16 17 18 17 15 14 13 13 13 12 12 12 13 14 16 17 18 18 19 19 20 20 20
11 12 12 12 13 15 16 17 18 18 17 16 16 17 16 15 13 13 15 16 16 16 14 14 13 13 13 13 14 14 14 14 15 16 18 19 19 18 18 19 19 20 21
13 14 14 14 15 16 18 18 18 16 16 16 18 19 19 17 16 16 15 15 14 13 13 13 13 14 15 15 16 16 16 16 17 18 19 20 20 20 20 21 21 21 22
15 16 15 16 17 17 19 19 17 16 16 18 20 20 17 15 14 14 13 12 12 13 14 15 16 16 16 17 17 18 18 18 19 19 20 21 21 21 22 22 23 23 24
17 17 17 17 19 18 19 19 16 16 18 20 20 17 15 14 13 14 13 14 14 15 16 16 17 17 18 18 19 19 19 20 20 20 21 22 22 22 23 24 24 25 27
18 18 19 18 20 19 20 16 15 17 19 19 16 15 15 15 15 16 16 16 16 16 16 16 17 18 18 18 20 21 22 23 23 23 24 24 23 23 24 24 24 25 27
20 19 19 20 21 20 17 14 15 17 18 16 16 16 17 17 17 18 18 18 18 18 18 19 19 20 20 20 21 21 23 24 25 25 25 27 26 26 26 27 27 28 29
20 20 20 21 20 17 14 14 16 18 18 17 17 17 18 18 19 19 20 20 21 21 20 20 21 21 22 23 23 23 24 26 27 27 26 27 29 28 28 28 29 29 30
20 20 20 19 16 14 15 15 18 20 19 19 19 19 19 20 21 21 22 22 23 22 22 22 23 23 24 24 24 25 26 27 28 30 30 30 31 32 32 31 31 31 31
Wind_Direction
181 163 144 158 190 203 225 249 260 273 290 301 307 308 310 313 316 325 332 339 338 340 348 351 347 342 340 345 345 347 349 357 3 11 15 11 8 8 23 14 358 336 310
181 177 161 158 203 222 240 247 264 277 284 291 300 300 303 304 300 302 307 311 314 317 318 315 315 319 327 330 330 326 319 325 332 337 339 343 351 351 350 357 354 349 331
184 182 167 177 178 188 222 251 270 279 292 290 291 296 292 286 287 299 300 301 302 301 302 301 302 306 310 312 313 314 314 315 317 319 320 318 320 325 327 329 332 335 333
178 193 198 201 214 241 269 274 269 279 280 290 291 293 290 294 298 295 295 294 292 293 294 293 293 295 298 300 300 303 303 305 301 298 300 302 302 304 308 313 317 320 320
170 186 203 216 234 260 269 279 288 294 295 296 297 300 301 302 303 301 302 298 292 289 289 290 291 291 293 293 292 293 292 290 290 286 284 286 289 291 293 295 298 301 304
174 183 200 212 236 257 277 293 302 304 303 303 305 306 305 304 304 303 300 302 295 293 290 288 285 279 278 281 284 284 279 279 282 285 283 280 281 283 284 289 290 290 292
186 197 213 227 244 274 295 302 305 306 306 306 308 307 305 307 307 308 306 304 302 299 295 294 293 295 293 290 285 282 280 280 284 286 287 285 281 279 280 282 284 288 290
206 221 237 248 276 294 299 303 307 307 308 308 310 310 308 307 307 305 301 301 300 299 298 299 299 299 297 294 290 288 287 283 281 283 284 284 283 284 284 283 284 282 284
221 240 255 276 292 298 304 309 308 305 305 307 310 309 308 308 307 305 305 305 305 304 304 302 300 296 293 290 289 287 285 284 283 279 278 279 282 283 282 279 279 278 278
233 251 273 291 301 304 306 307 305 306 308 309 309 309 311 309 306 306 305 305 304 302 301 300 297 296 292 290 288 287 286 285 283 282 281 281 279 280 281 278 276 276 276
237 263 287 298 303 308 309 308 308 308 310 311 310 309 308 306 305 306 307 306 303 299 297 297 296 294 293 294 293 292 291 288 285 282 281 281 279 277 275 274 274 271 270
240 265 282 294 302 306 309 309 311 312 311 310 309 307 307 307 308 308 307 305 301 299 296 297 297 296 295 296 296 296 295 293 291 289 288 286 284 281 278 276 274 267 270
247 266 286 295 300 304 306 309 314 315 313 311 309 309 310 309 308 307 306 303 302 300 300 300 298 297 297 296 293 293 295 295 294 293 292 288 284 282 281 278 273 269 270
255 274 288 293 298 301 305 311 315 314 312 313 313 311 310 307 306 304 302 301 301 304 306 304 303 302 300 294 289 289 293 294 293 295 294 294 293 290 290 286 279 276 274
262 276 284 289 293 299 304 310 311 313 315 315 312 311 309 306 302 300 299 301 304 307 308 306 304 300 294 293 294 294 292 294 295 297 298 298 296 293 290 285 283 282 281
267 276 279 283 287 296 300 306 314 317 318 316 316 318 318 313 309 305 302 303 304 307 307 308 305 299 300 299 296 298 300 298 297 299 303 303 300 299 296 294 292 290 290
266 271 275 277 285 292 299 310 315 318 318 320 319 319 319 317 316 310 305 304 306 307 305 304 304 304 303 302 303 303 303 303 306 311 313 313 311 307 303 301 302 302 302
262 266 270 277 286 293 304 309 316 318 317 319 323 325 325 323 316 311 303 301 303 304 302 302 307 310 309 307 304 305 307 312 314 317 317 317 315 313 310 309 309 308 305
261 266 269 277 287 295 301 307 314 314 314 320 326 326 322 316 309 304 300 304 307 307 311 313 313 310 306 305 307 308 308 309 314 316 318 318 316 315 315 313 310 307 303
261 266 269 276 283 291 299 306 311 310 312 320 322 321 315 310 307 305 307 310 311 313 315 314 310 307 307 306 307 307 306 309 310 312 313 313 313 313 312 309 307 305 302
261 267 272 277 281 293 298 304 306 306 314 317 320 320 320 315 310 312 313 313 316 317 315 311 311 311 311 310 310 307 305 304 307 310 309 308 308 307 306 306 304 302 300
264 268 271 275 285 295 297 300 303 309 311 312 315 319 318 318 320 319 316 312 311 309 308 309 307 305 305 305 302 300 297 298 299 301 300 300 300 301 302 302 303 302 301
265 266 268 280 288 292 293 297 303 307 309 312 318 315 312 315 318 314 311 309 306 303 301 298 297 299 299 299 299 299 299 298 297 298 300 300 300 299 298 298 297 297 297
260 264 271 282 285 288 290 296 302 306 309 316 316 311 312 316 314 309 305 302 300 298 297 297 297 296 295 294 293 292 293 294 295 295 295 296 297 299 299 300 300 300 299
261 266 274 277 281 283 287 296 303 307 310 308 308 309 313 312 306 304 302 300 297 295 295 294 292 292 292 292 291 290 289 289 290 292 293 294 296 296 296 296 296 296 295
263 267 272 275 275 281 289 298 303 307 302 298 302 306 306 300 300 300 298 296 295 294 294 294 293 294 294 293 292 291 290 290 290 292 292 292 294 297 299 299 299 297 295